• In Italy
  • List of Countries
  • For 7 days
  • Water Temperature
  • Satellite Maps
  • Weather Map
  • Weather Widgets
  • user-avatar
    Login

    Hourly Weather Erd

    Today, 21 January, Sunday

    Time Temperature Precipitation Wind Pressure Humidity
    00:00 0°C° 0 mm 3 mps 745 mmHg 84%
    01:00 0°C° 0 mm 3 mps 744 mmHg 83%
    02:00 -1°C° 0.1 mm 4 mps 743 mmHg 83%
    03:00 -1°C° 0.1 mm 4 mps 743 mmHg 82%
    04:00 -1°C° 0.1 mm 4 mps 742 mmHg 81%
    05:00 -1°C° 0.8 mm 4 mps 742 mmHg 85%
    06:00 0°C° 0.8 mm 3 mps 742 mmHg 89%
    07:00 -1°C° 0 mm 3 mps 742 mmHg 93%
    08:00 +1°C° 0.4 mm 2 mps 742 mmHg 93%
    09:00 +1°C° 0.4 mm 2 mps 742 mmHg 93%
    10:00 +1°C° 0.4 mm 2 mps 743 mmHg 94%
    11:00 +1°C° 0.2 mm 2 mps 743 mmHg 92%
    12:00 0°C° 0.2 mm 3 mps 743 mmHg 91%
    13:00 +1°C° 0 mm 3 mps 744 mmHg 91%
    14:00 -1°C° 0 mm 4 mps 744 mmHg 89%
    15:00 -1°C° 0 mm 4 mps 745 mmHg 88%
    16:00 -1°C° 0 mm 4 mps 746 mmHg 86%
    17:00 -1°C° 0 mm 4 mps 746 mmHg 87%
    18:00 -2°C° 0 mm 4 mps 747 mmHg 88%
    19:00 -2°C° 0 mm 4 mps 747 mmHg 89%
    20:00 -2°C° 0 mm 4 mps 748 mmHg 88%
    21:00 -2°C° 0 mm 5 mps 749 mmHg 87%
    22:00 -4°C° 0 mm 5 mps 749 mmHg 85%
    23:00 -4°C° 0 mm 5 mps 750 mmHg 84%

    Tomorrow, 22 January, Monday

    Time Temperature Precipitation Wind Pressure Humidity
    00:00 -4°C° 0 mm 5 mps 750 mmHg 84%
    01:00 -3°C° 0 mm 4 mps 751 mmHg 83%
    02:00 -3°C° 0 mm 4 mps 751 mmHg 83%
    03:00 -3°C° 0 mm 4 mps 751 mmHg 83%
    04:00 -4°C° 0 mm 4 mps 751 mmHg 83%
    05:00 -4°C° 0 mm 3 mps 752 mmHg 84%
    06:00 -4°C° 0 mm 3 mps 752 mmHg 85%
    07:00 -4°C° 0 mm 3 mps 752 mmHg 85%
    08:00 -2°C° 0 mm 2 mps 752 mmHg 81%
    09:00 -2°C° 0 mm 2 mps 752 mmHg 77%
    10:00 -1°C° 0 mm 2 mps 753 mmHg 73%
    11:00 +2°C° 0 mm 1 mps 752 mmHg 70%
    12:00 +3°C° 0 mm 1 mps 752 mmHg 66%
    13:00 +3°C° 0 mm 1 mps 752 mmHg 62%
    14:00 +3°C° 0 mm 1 mps 752 mmHg 65%
    15:00 +2°C° 0 mm 1 mps 752 mmHg 68%
    16:00 +2°C° 0 mm 1 mps 752 mmHg 71%
    17:00 +1°C° 0 mm 1 mps 752 mmHg 73%
    18:00 +1°C° 0 mm 1 mps 753 mmHg 75%
    19:00 +1°C° 0 mm 1 mps 753 mmHg 77%
    20:00 0°C° 0 mm 1 mps 753 mmHg 78%
    21:00 0°C° 0 mm 1 mps 754 mmHg 79%
    22:00 0°C° 0 mm 1 mps 754 mmHg 80%
    23:00 0°C° 0 mm 1 mps 754 mmHg 80%

    Day after tomorrow, 23 January, Tuesday

    Time Temperature Precipitation Wind Pressure Humidity
    00:00 0°C° 0 mm 1 mps 755 mmHg 81%
    01:00 0°C° 0 mm 1 mps 755 mmHg 81%
    02:00 0°C° 0.1 mm 1 mps 755 mmHg 82%
    03:00 0°C° 0.1 mm 1 mps 755 mmHg 83%
    04:00 0°C° 0.1 mm 1 mps 755 mmHg 85%
    05:00 0°C° 0.2 mm 1 mps 755 mmHg 86%
    06:00 0°C° 0.2 mm 1 mps 756 mmHg 88%
    07:00 -2°C° 0.2 mm 2 mps 756 mmHg 90%
    08:00 -1°C° 0.3 mm 2 mps 757 mmHg 90%
    09:00 -1°C° 0.3 mm 2 mps 757 mmHg 90%
    10:00 -1°C° 0.3 mm 2 mps 758 mmHg 89%
    11:00 +2°C° 0.1 mm 1 mps 758 mmHg 89%
    12:00 +2°C° 0.1 mm 1 mps 758 mmHg 88%
    13:00 +3°C° 0.1 mm 1 mps 759 mmHg 87%
    14:00 +2°C° 0 mm 1 mps 759 mmHg 89%
    15:00 +2°C° 0 mm 1 mps 760 mmHg 90%
    16:00 +2°C° 0 mm 1 mps 760 mmHg 92%
    17:00 +2°C° 0 mm 1 mps 761 mmHg 92%
    18:00 +1°C° 0 mm 1 mps 761 mmHg 92%
    19:00 +1°C° 0 mm 1 mps 762 mmHg 93%
    20:00 +1°C° 0 mm 1 mps 762 mmHg 93%
    21:00 0°C° 0 mm 1 mps 762 mmHg 92%
    22:00 0°C° 0 mm 1 mps 763 mmHg 92%
    23:00 0°C° 0 mm 1 mps 763 mmHg 92%

    24 January, Wednesday

    Time Temperature Precipitation Wind Pressure Humidity
    00:00 0°C° 0 mm 1 mps 763 mmHg 92%
    01:00 0°C° 0 mm 1 mps 764 mmHg 92%
    02:00 0°C° 0 mm 1 mps 764 mmHg 92%
    03:00 0°C° 0 mm 1 mps 764 mmHg 92%
    04:00 0°C° 0 mm 1 mps 764 mmHg 92%
    05:00 -1°C° 0 mm 1 mps 764 mmHg 92%
    06:00 -3°C° 0 mm 2 mps 764 mmHg 92%
    07:00 -3°C° 0 mm 2 mps 764 mmHg 92%
    08:00 -2°C° 0 mm 2 mps 764 mmHg 90%
    09:00 -1°C° 0 mm 2 mps 765 mmHg 88%
    10:00 -1°C° 0 mm 2 mps 765 mmHg 86%
    11:00 +1°C° 0 mm 2 mps 765 mmHg 85%
    12:00 +1°C° 0 mm 3 mps 764 mmHg 83%
    13:00 +2°C° 0 mm 3 mps 764 mmHg 82%
    14:00 +1°C° 0 mm 3 mps 764 mmHg 84%
    15:00 +2°C° 0 mm 2 mps 764 mmHg 85%
    16:00 +2°C° 0 mm 2 mps 764 mmHg 87%
    17:00 +1°C° 0 mm 2 mps 763 mmHg 89%
    18:00 0°C° 0 mm 3 mps 763 mmHg 90%
    19:00 -1°C° 0 mm 3 mps 763 mmHg 91%
    20:00 -1°C° 0 mm 3 mps 763 mmHg 92%
    21:00 -1°C° 0 mm 3 mps 763 mmHg 92%
    22:00 -1°C° 0 mm 3 mps 763 mmHg 92%
    23:00 -2°C° 0 mm 3 mps 763 mmHg 92%

    25 January, Thursday

    Time Temperature Precipitation Wind Pressure Humidity
    00:00 -2°C° 0 mm 3 mps 762 mmHg 91%
    01:00 -2°C° 0 mm 3 mps 762 mmHg 91%
    02:00 -2°C° 0 mm 3 mps 761 mmHg 91%
    03:00 -2°C° 0 mm 3 mps 761 mmHg 90%
    04:00 -2°C° 0 mm 3 mps 761 mmHg 90%
    05:00 -2°C° 0 mm 3 mps 761 mmHg 89%
    06:00 -2°C° 0 mm 3 mps 760 mmHg 89%
    07:00 -2°C° 0 mm 3 mps 760 mmHg 88%
    08:00 -2°C° 0 mm 3 mps 760 mmHg 85%
    09:00 -1°C° 0 mm 3 mps 760 mmHg 81%
    10:00 0°C° 0 mm 3 mps 760 mmHg 77%
    11:00 +1°C° 0 mm 3 mps 759 mmHg 75%
    12:00 0°C° 0 mm 4 mps 759 mmHg 72%
    13:00 +1°C° 0 mm 4 mps 758 mmHg 69%
    14:00 +2°C° 0 mm 3 mps 758 mmHg 72%
    15:00 +2°C° 0 mm 3 mps 757 mmHg 74%
    16:00 +1°C° 0 mm 3 mps 757 mmHg 76%
    17:00 +1°C° 0 mm 3 mps 757 mmHg 77%
    18:00 +1°C° 0 mm 3 mps 756 mmHg 78%
    19:00 0°C° 0 mm 3 mps 756 mmHg 79%
    20:00 0°C° 0 mm 3 mps 756 mmHg 79%
    21:00 0°C° 0 mm 3 mps 756 mmHg 79%
    22:00 0°C° 0 mm 3 mps 755 mmHg 78%
    23:00 0°C° 0 mm 3 mps 755 mmHg 78%

    26 January, Friday

    Time Temperature Precipitation Wind Pressure Humidity
    00:00 0°C° 0 mm 3 mps 755 mmHg 78%
    01:00 0°C° 0 mm 3 mps 755 mmHg 78%
    02:00 0°C° 0 mm 3 mps 755 mmHg 79%
    03:00 0°C° 0 mm 3 mps 754 mmHg 79%
    04:00 0°C° 0 mm 3 mps 754 mmHg 79%
    05:00 +1°C° 0 mm 3 mps 754 mmHg 80%
    06:00 +1°C° 0 mm 3 mps 754 mmHg 80%
    07:00 +1°C° 0 mm 3 mps 754 mmHg 81%
    08:00 +1°C° 0 mm 3 mps 754 mmHg 79%
    09:00 +2°C° 0 mm 3 mps 754 mmHg 77%
    10:00 +1°C° 0 mm 4 mps 755 mmHg 75%
    11:00 +3°C° 0 mm 4 mps 754 mmHg 73%
    12:00 +4°C° 0 mm 4 mps 754 mmHg 71%
    13:00 +5°C° 0 mm 4 mps 754 mmHg 68%
    14:00 +5°C° 0 mm 3 mps 754 mmHg 70%
    15:00 +4°C° 0 mm 3 mps 754 mmHg 72%
    16:00 +4°C° 0 mm 3 mps 754 mmHg 73%
    17:00 +3°C° 0 mm 3 mps 754 mmHg 75%
    18:00 +2°C° 0 mm 3 mps 755 mmHg 76%
    19:00 +3°C° 0 mm 2 mps 755 mmHg 77%
    20:00 +2°C° 0 mm 2 mps 755 mmHg 77%
    21:00 +2°C° 0 mm 2 mps 756 mmHg 77%
    22:00 +2°C° 0 mm 2 mps 756 mmHg 78%
    23:00 +2°C° 0 mm 2 mps 756 mmHg 78%
    Show more